Location: Boiro
(42.6475°N, 8.8834°W)
Time: 17:41:34
(UTC+01:00)

Tiros 1 - Pass Details

Date: 10 December 2021
Orbit: 630 x 663 km, 48.4° (Epoch: 20 January)

Event Time Altitude Azimuth Distance (km) Brightness Sun altitude
Rises 18:54:08 0° 258° (WSW) 2,911 12.5 -9.4°
Reaches altitude 10° 18:56:29 10° 263° (W) 2,007 11.1 -9.8°
Maximum altitude 19:01:02 56° 342° (NNW) 752 7.5 -10.6°
Enters shadow 19:04:45 15° 59° (ENE) 1,706 8.7 -11.2°
Drops below altitude 10° 19:05:37 10° 62° (ENE) 2,027 - -11.4°
Sets 19:08:00 0° 66° (ENE) 2,943 - -11.8°
